(°C)
22°
21°
21°
20°
20°
20°
20°
(°C)
24°
23°
23°
23°
22°
22°
22°
ZJZ
ZJZ
ZJZ
JZ
JZ
JJZ
JZ
(km/h)
10-16
9-14
7-12
6-9
4-7
3-6
3-5
(mm)
0
0
0
0
0
0
0
(%)
0
0
0
0
0
0
0

Sluneční výška

/ 25.9°
sun-icon
UV 6
06:43
18:31
Dorůstající měsíc (110°)
15:44
00:51

METAR pro San Diego (KSAN)

Čas Podmínky Teplota/
Rosný bod
Vítr Viditelnost Počasí Oblaky Tlak Změna Nezpracované
VFR 22.8°C / 17.2°C variable 6kt >10km - Scattered Clouds 1600ft
Scattered Clouds 5000ft
1013 - KSAN 042251Z VRB06KT 10SM SCT016 SCT050 23/17 A2992 RMK AO2 SLP130 T02280172
VFR 23.3°C / 17.2°C 290º 4kt >10km - Scattered Clouds 1500ft
Scattered Clouds 5000ft
- KSAN 042235Z 29004KT 10SM SCT015 SCT050 23/17 A2992 RMK AO2 TCU DSNT NE T02330172
MVFR 22.8°C / 17.2°C variable 6kt >10km - Broken Clouds 1500ft
Broken Clouds 5000ft
1013 - KSAN 042151Z VRB06KT 10SM BKN015 BKN050 23/17 A2992 RMK AO2 SLP132 BKN015 V SCT T02280172
MVFR 22.2°C / 17.2°C 220º 5kt >10km - Broken Clouds 1500ft
Broken Clouds 5000ft
- KSAN 042119Z 22005KT 10SM BKN015 BKN050 22/17 A2993 RMK AO2 T02220172
MVFR 21.7°C / 17.2°C variable 6kt >10km - Broken Clouds 1400ft
Broken Clouds 5000ft
1013 - KSAN 042051Z VRB06KT 10SM BKN014 BKN050 22/17 A2994 RMK AO2 SLP138 T02170172 58014
MVFR 21.1°C / 17.2°C 200º 7kt >10km - Overcast 1400ft 1014 - KSAN 041951Z 20007KT 10SM OVC014 21/17 A2996 RMK AO2 SLP143 T02110172
MVFR 21.7°C / 17.2°C 210º 6kt >10km - Overcast 1400ft 1014 - KSAN 041851Z 21006KT 10SM OVC014 22/17 A2997 RMK AO2 SLP148 T02170172
MVFR 21.7°C / 17.2°C variable 0kt >10km - Overcast 1300ft 1015 - KSAN 041751Z 00000KT 10SM OVC013 22/17 A2998 RMK AO2 SLP152 T02170172 10217 20200 50008
MVFR 20.6°C / 17.2°C variable 0kt >10km - Overcast 1000ft - KSAN 041703Z 00000KT 10SM OVC010 21/17 A2999 RMK AO2 T02060172
IFR 20.6°C / 17.2°C 260º 3kt >10km - Overcast 900ft 1015 - KSAN 041651Z 26003KT 10SM OVC009 21/17 A2998 RMK AO2 SLP153 T02060172
IFR 20°C / 17.2°C variable 0kt >10km - Overcast 900ft 1015 - KSAN 041551Z 00000KT 9SM OVC009 20/17 A2998 RMK AO2 SLP150 T02000172
IFR 20°C / 17.2°C 270º 3kt >10km - Overcast 900ft 1014 - KSAN 041451Z 27003KT 10SM OVC009 20/17 A2996 RMK AO2 SLP144 T02000172 53012
IFR 20°C / 17.2°C variable 0kt >10km - Overcast 900ft - KSAN 041442Z 00000KT 10SM OVC009 20/17 A2996 RMK AO2 T02000172
MVFR 20°C / 16.7°C variable 0kt >10km - Overcast 1100ft 1013 - KSAN 041351Z 00000KT 10SM OVC011 20/17 A2994 RMK AO2 SLP139 T02000167
MVFR 20°C / 16.7°C variable 0kt >10km - Overcast 1200ft 1013 - KSAN 041251Z 00000KT 10SM OVC012 20/17 A2993 RMK AO2 SLP134 T02000167
MVFR 20°C / 16.7°C 60º 3kt >10km - Broken Clouds 1100ft 1013 - KSAN 041151Z 06003KT 10SM BKN011 20/17 A2993 RMK AO2 SLP133 T02000167 10206 20200 56009
MVFR 20°C / 16.7°C variable 0kt >10km - Overcast 1200ft 1013 - KSAN 041051Z 00000KT 10SM OVC012 20/17 A2993 RMK AO2 SLP135 T02000167
MVFR 20°C / 16.7°C variable 0kt >10km - Overcast 1200ft 1013 - KSAN 040951Z 00000KT 10SM OVC012 20/17 A2994 RMK AO2 SLP138 T02000167
MVFR 20.6°C / 16.7°C variable 0kt >10km - Overcast 1300ft 1014 - KSAN 040851Z 00000KT 10SM OVC013 21/17 A2995 RMK AO2 SLP142 T02060167 58007
MVFR 20°C / 16.7°C 300º 3kt >10km - Overcast 1300ft 1014 - KSAN 040751Z 30003KT 10SM OVC013 20/17 A2996 RMK AO2 SLP145 T02000167 402280200
MVFR 20°C / 16.7°C 270º 3kt >10km - Overcast 1400ft 1014 - KSAN 040651Z 27003KT 10SM OVC014 20/17 A2997 RMK AO2 SLP147 T02000167
MVFR 20°C / 16.7°C variable 3kt >10km - Overcast 1300ft 1014 - KSAN 040551Z VRB03KT 10SM OVC013 20/17 A2997 RMK AO2 SLP149 T02000167 10211 20200 51005
MVFR 20°C / 16.1°C variable 0kt >10km - Overcast 1300ft 1014 - KSAN 040451Z 00000KT 10SM OVC013 20/16 A2997 RMK AO2 SLP148 T02000161
MVFR 20.6°C / 16.1°C 280º 4kt >10km - Broken Clouds 1400ft 1014 - KSAN 040351Z 28004KT 10SM BKN014 21/16 A2997 RMK AO2 SLP147 T02060161

VFR

22.8°C / 17.2°C

[Víc]
Vítr variable 6kt
Viditelnost >10km
Počasí -
Oblaky Scattered Clouds 1600ft
Scattered Clouds 5000ft
Tlak 1013
Změna -
Nezpracované KSAN 042251Z VRB06KT 10SM SCT016 SCT050 23/17 A2992 RMK AO2 SLP130 T02280172

VFR

23.3°C / 17.2°C

[Víc]
Vítr 290º 4kt
Viditelnost >10km
Počasí -
Oblaky Scattered Clouds 1500ft
Scattered Clouds 5000ft
Tlak
Změna -
Nezpracované KSAN 042235Z 29004KT 10SM SCT015 SCT050 23/17 A2992 RMK AO2 TCU DSNT NE T02330172

MVFR

22.8°C / 17.2°C

[Víc]
Vítr variable 6kt
Viditelnost >10km
Počasí -
Oblaky Broken Clouds 1500ft
Broken Clouds 5000ft
Tlak 1013
Změna -
Nezpracované KSAN 042151Z VRB06KT 10SM BKN015 BKN050 23/17 A2992 RMK AO2 SLP132 BKN015 V SCT T02280172

MVFR

22.2°C / 17.2°C

[Víc]
Vítr 220º 5kt
Viditelnost >10km
Počasí -
Oblaky Broken Clouds 1500ft
Broken Clouds 5000ft
Tlak
Změna -
Nezpracované KSAN 042119Z 22005KT 10SM BKN015 BKN050 22/17 A2993 RMK AO2 T02220172

MVFR

21.7°C / 17.2°C

[Víc]
Vítr variable 6kt
Viditelnost >10km
Počasí -
Oblaky Broken Clouds 1400ft
Broken Clouds 5000ft
Tlak 1013
Změna -
Nezpracované KSAN 042051Z VRB06KT 10SM BKN014 BKN050 22/17 A2994 RMK AO2 SLP138 T02170172 58014

MVFR

21.1°C / 17.2°C

[Víc]
Vítr 200º 7kt
Viditelnost >10km
Počasí -
Oblaky Overcast 1400ft
Tlak 1014
Změna -
Nezpracované KSAN 041951Z 20007KT 10SM OVC014 21/17 A2996 RMK AO2 SLP143 T02110172

MVFR

21.7°C / 17.2°C

[Víc]
Vítr 210º 6kt
Viditelnost >10km
Počasí -
Oblaky Overcast 1400ft
Tlak 1014
Změna -
Nezpracované KSAN 041851Z 21006KT 10SM OVC014 22/17 A2997 RMK AO2 SLP148 T02170172

MVFR

21.7°C / 17.2°C

[Víc]
Vítr variable 0kt
Viditelnost >10km
Počasí -
Oblaky Overcast 1300ft
Tlak 1015
Změna -
Nezpracované KSAN 041751Z 00000KT 10SM OVC013 22/17 A2998 RMK AO2 SLP152 T02170172 10217 20200 50008

MVFR

20.6°C / 17.2°C

[Víc]
Vítr variable 0kt
Viditelnost >10km
Počasí -
Oblaky Overcast 1000ft
Tlak
Změna -
Nezpracované KSAN 041703Z 00000KT 10SM OVC010 21/17 A2999 RMK AO2 T02060172

IFR

20.6°C / 17.2°C

[Víc]
Vítr 260º 3kt
Viditelnost >10km
Počasí -
Oblaky Overcast 900ft
Tlak 1015
Změna -
Nezpracované KSAN 041651Z 26003KT 10SM OVC009 21/17 A2998 RMK AO2 SLP153 T02060172

IFR

20°C / 17.2°C

[Víc]
Vítr variable 0kt
Viditelnost >10km
Počasí -
Oblaky Overcast 900ft
Tlak 1015
Změna -
Nezpracované KSAN 041551Z 00000KT 9SM OVC009 20/17 A2998 RMK AO2 SLP150 T02000172

IFR

20°C / 17.2°C

[Víc]
Vítr 270º 3kt
Viditelnost >10km
Počasí -
Oblaky Overcast 900ft
Tlak 1014
Změna -
Nezpracované KSAN 041451Z 27003KT 10SM OVC009 20/17 A2996 RMK AO2 SLP144 T02000172 53012

IFR

20°C / 17.2°C

[Víc]
Vítr variable 0kt
Viditelnost >10km
Počasí -
Oblaky Overcast 900ft
Tlak
Změna -
Nezpracované KSAN 041442Z 00000KT 10SM OVC009 20/17 A2996 RMK AO2 T02000172

MVFR

20°C / 16.7°C

[Víc]
Vítr variable 0kt
Viditelnost >10km
Počasí -
Oblaky Overcast 1100ft
Tlak 1013
Změna -
Nezpracované KSAN 041351Z 00000KT 10SM OVC011 20/17 A2994 RMK AO2 SLP139 T02000167

MVFR

20°C / 16.7°C

[Víc]
Vítr variable 0kt
Viditelnost >10km
Počasí -
Oblaky Overcast 1200ft
Tlak 1013
Změna -
Nezpracované KSAN 041251Z 00000KT 10SM OVC012 20/17 A2993 RMK AO2 SLP134 T02000167

MVFR

20°C / 16.7°C

[Víc]
Vítr 60º 3kt
Viditelnost >10km
Počasí -
Oblaky Broken Clouds 1100ft
Tlak 1013
Změna -
Nezpracované KSAN 041151Z 06003KT 10SM BKN011 20/17 A2993 RMK AO2 SLP133 T02000167 10206 20200 56009

MVFR

20°C / 16.7°C

[Víc]
Vítr variable 0kt
Viditelnost >10km
Počasí -
Oblaky Overcast 1200ft
Tlak 1013
Změna -
Nezpracované KSAN 041051Z 00000KT 10SM OVC012 20/17 A2993 RMK AO2 SLP135 T02000167

MVFR

20°C / 16.7°C

[Víc]
Vítr variable 0kt
Viditelnost >10km
Počasí -
Oblaky Overcast 1200ft
Tlak 1013
Změna -
Nezpracované KSAN 040951Z 00000KT 10SM OVC012 20/17 A2994 RMK AO2 SLP138 T02000167

MVFR

20.6°C / 16.7°C

[Víc]
Vítr variable 0kt
Viditelnost >10km
Počasí -
Oblaky Overcast 1300ft
Tlak 1014
Změna -
Nezpracované KSAN 040851Z 00000KT 10SM OVC013 21/17 A2995 RMK AO2 SLP142 T02060167 58007

MVFR

20°C / 16.7°C

[Víc]
Vítr 300º 3kt
Viditelnost >10km
Počasí -
Oblaky Overcast 1300ft
Tlak 1014
Změna -
Nezpracované KSAN 040751Z 30003KT 10SM OVC013 20/17 A2996 RMK AO2 SLP145 T02000167 402280200

MVFR

20°C / 16.7°C

[Víc]
Vítr 270º 3kt
Viditelnost >10km
Počasí -
Oblaky Overcast 1400ft
Tlak 1014
Změna -
Nezpracované KSAN 040651Z 27003KT 10SM OVC014 20/17 A2997 RMK AO2 SLP147 T02000167

MVFR

20°C / 16.7°C

[Víc]
Vítr variable 3kt
Viditelnost >10km
Počasí -
Oblaky Overcast 1300ft
Tlak 1014
Změna -
Nezpracované KSAN 040551Z VRB03KT 10SM OVC013 20/17 A2997 RMK AO2 SLP149 T02000167 10211 20200 51005

MVFR

20°C / 16.1°C

[Víc]
Vítr variable 0kt
Viditelnost >10km
Počasí -
Oblaky Overcast 1300ft
Tlak 1014
Změna -
Nezpracované KSAN 040451Z 00000KT 10SM OVC013 20/16 A2997 RMK AO2 SLP148 T02000161

MVFR

20.6°C / 16.1°C

[Víc]
Vítr 280º 4kt
Viditelnost >10km
Počasí -
Oblaky Broken Clouds 1400ft
Tlak 1014
Změna -
Nezpracované KSAN 040351Z 28004KT 10SM BKN014 21/16 A2997 RMK AO2 SLP147 T02060161

TAF pro San Diego (KSAN)

From till


From till Wind 290º 5kt. Visibility 10km or more. Scattered Clouds 1500ft.
From till Wind variable 4kt. Visibility 10km or more. Overcast 1200ft.
From till Wind 260º 7kt. Visibility 10km or more. Scattered Clouds 1200ft.

Nezpracované: KSAN 042239Z 0423/0524 29005KT P6SM SCT015 FM050300 VRB04KT P6SM OVC012 FM051900 26007KT P6SM SCT012

Radar a krátkodobá předpověď srážek pro San Diego

Mrholení
Slabé
Střední
Silné
Velmi silné
Kroupy

Značka lokality je umístněna na San Diego. Tato animace ukazuje srážky zaznamenané radarem za poslední hodinu a také 1h předpověď. Mrholení nebo slabé sněžení může být pro radar neviditelné. Intenzita srážek je barevně označena od světle modré po oranžovou.

Aktuální snímky ze satelitu pro San Diego, Spojené státy americké

Značka polohy je umístěna na San Diego. [Víc]

Satelitní snímek v reálném čase kombinuje viditelné světlo během dne s infračerveným zářením během noci. V noci není obraz tmavý, protože infračervené záření dokáže detekovat teplotní rozdíly. Nízká oblačnost a mlha se bohužel těžko odlišují od pozemních teplot, a proto mohou být během noci téměř neviditelné. Satelitní snímky z Meteosatu pro Evropu jsou aktualizovány v reálném čase každých 5 minut. Snímky z GOES-16/GOES-17 (Severní a Jižní Amerika) a Himawari (Asie) jsou aktualizovány) každých 10 minut.

Zpět nahoru